This demonstration page uses our WeatherBlox Daily Observations layout. Learn more.

Left ArrowRight Arrow

Hourly Observations for September 17, 2022

Temp ( °F °C ) Dew Point ( °F °C ) Humidity (%) Winds ( mph kmh ) Pressure ( in mb ) Visibility ( mi km ) Precip ( " mm )
12:05 am 00:05 Cloudy 81 27.2 70 21.1 69 69 SW 9 15 30.00 1016 10 16 0.00 0.00
12:16 am 00:16 Mostly Cloudy 81 27.2 70 21.1 69 69 SW 10 17 30.00 1016 10 16 0.00 0.00
12:37 am 00:37 Cloudy 81 27.2 70 21.1 69 69 SW 9 15 30.00 1016 10 16 0.00 0.00
12:53 am 00:53 Mostly Cloudy 81 27.2 70 21.1 69 69 SW 7 11 29.99 1016 10 16 0.00 0.00
1:53 am 01:53 Mostly Cloudy 81 27.2 70 21.1 69 69 SSW 6 9 29.98 1015 10 16 0.00 0.00
2:53 am 02:53 Cloudy 80 26.7 70 21.1 71 71 SW 6 9 29.97 1015 10 16 0.00 0.00
3:53 am 03:53 Cloudy 80 26.7 70 21.1 71 71 SSW 6 9 29.96 1015 10 16 0.00 0.00
4:35 am 04:35 Mostly Cloudy 80 26.7 70 21.1 71 71 SSW 3 6 29.97 1015 10 16 0.00 0.00
4:42 am 04:42 Mostly Cloudy 80 26.7 70 21.1 71 71 Calm 29.97 1015 10 16 0.00 0.00
4:53 am 04:53 Cloudy 79 26.1 70 21.1 74 74 ESE 5 7 29.96 1015 10 16 0.00 0.00
5:07 am 05:07 Cloudy 79 26.1 70 21.1 74 74 E 3 6 29.97 1015 10 16 0.00 0.00
5:35 am 05:35 Cloudy with Light Rain 78 25.6 70 21.1 76 76 Calm 29.98 1015 10 16 0.01 0.13
5:53 am 05:53 Mostly Cloudy 78 25.6 70 21.1 76 76 Calm 29.97 1015 10 16 0.01 0.13
6:27 am 06:27 Cloudy with Heavy Rain 76 24.4 72 22.2 88 88 Calm 29.98 1015 2 3 0.09 2.29
6:34 am 06:34 Mostly Cloudy with Heavy Rain 76 24.4 71 21.7 85 85 NE 5 7 29.99 1016 10 16 0.13 3.30
6:53 am 06:53 Mostly Cloudy with Rain 77 25 72 22.2 84 84 Calm 29.98 1015 10 16 0.20 5.08
7:03 am 07:03 Cloudy with Heavy Rain 78 25.6 72 22.2 82 82 N 5 7 30.00 1016 4 6 0.02 0.51
7:10 am 07:10 Mostly Cloudy with Rain 77 25 72 22.2 84 84 NNE 5 7 30.00 1016 10 16 0.03 0.76
7:53 am 07:53 Mostly Cloudy with Light Rain 77 25 73 22.8 88 88 S 6 9 30.01 1016 10 16 0.03 0.76
8:12 am 08:12 Mostly Cloudy with Light Rain 79 26.1 73 22.8 82 82 Calm 30.02 1016 10 16 0.01 0.13
8:50 am 08:50 Mostly Cloudy with Light Rain 79 26 73 23 84 84 S 9 15 30.03 1017 9 14 0.01 0.13
8:53 am 08:53 Mostly Cloudy with Light Rain 79 26.1 73 22.8 82 82 S 9 15 30.03 1017 10 16 0.01 0.13
9:01 am 09:01 Cloudy with Light Rain 80 26.7 73 22.8 79 79 S 9 15 30.03 1017 10 16 0.01 0.13
9:53 am 09:53 Mostly Cloudy with Rain 79 26.1 73 22.8 82 82 SSE 8 13 30.03 1017 10 16 0.01 0.25
10:24 am 10:24 Cloudy with Light Rain 80 26.7 73 22.8 79 79 SE 10 17 30.04 1017 9 14 0.01 0.25
10:53 am 10:53 Mostly Cloudy with Light Rain 81 27.2 73 22.8 77 77 SSE 9 15 30.03 1017 10 16 0.01 0.25
11:04 am 11:04 Mostly Cloudy with Rain 80 26.7 73 22.8 79 79 S 7 11 30.03 1017 10 16 0.03 0.76
11:53 am 11:53 Mostly Cloudy 82 27.8 74 23.3 77 77 SSW 10 17 30.01 1016 10 16 0.03 0.76
12:53 pm 12:53 Partly Cloudy 84 28.9 73 22.8 70 70 SW 12 19 29.99 1016 10 16 0.00 0.00
1:53 pm 13:53 Partly Cloudy 84 28.9 70 21.1 63 63 SW 9 15 29.98 1015 10 16 0.00 0.00
2:53 pm 14:53 Mostly Cloudy 84 28.9 71 21.7 65 65 SW 8 13 29.97 1015 10 16 0.00 0.00
3:53 pm 15:53 Mostly Cloudy 84 28.9 69 20.6 61 61 WSW 8 13 29.96 1014 10 16 0.00 0.00
4:53 pm 16:53 Partly Cloudy 83 28.3 68 20 61 61 W 7 11 29.96 1014 10 16 0.00 0.00
5:53 pm 17:53 Partly Cloudy 82 27.8 70 21.1 67 67 W 6 9 29.96 1015 10 16 0.00 0.00
6:53 pm 18:53 Partly Cloudy 81 27.2 69 20.6 67 67 SW 5 7 29.98 1015 10 16 0.00 0.00
7:53 pm 19:53 Mostly Cloudy 81 27.2 70 21.1 69 69 W 3 6 29.99 1016 10 16 0.00 0.00
8:53 pm 20:53 Cloudy 81 27.2 71 21.7 72 72 SW 5 7 30.01 1016 10 16 0.00 0.00
9:46 pm 21:46 Cloudy 80 26.7 70 21.1 71 71 SW 5 7 30.01 1016 10 16 0.00 0.00
9:53 pm 21:53 Cloudy 80 26.7 70 21.1 71 71 SSW 3 6 30.01 1016 10 16 0.00 0.00
10:53 pm 22:53 Cloudy 80 26.7 69 20.6 69 69 Calm 30.00 1016 10 16 0.00 0.00
11:12 pm 23:12 Partly Cloudy 79 26.1 69 20.6 72 72 ESE 5 7 30.00 1016 10 16 0.00 0.00
11:53 pm 23:53 Mostly Clear 78 25.6 69 20.6 74 74 E 3 6 29.99 1016 10 16 0.00 0.00

Powered by AerisWeather